UAL91 LLBG-KEWR

Flight info

Callsign UAL91
Flight time N/A
Altitude 34000
Route SUVAS N128 OTHON UN128 RDS UL609 MES/N0479F320 UL608 GIKAS/N0475F360 UN133 PEREN L863 EVIVI/N0475F360 L863 OKANA DCT TONDO DCT NAVTI DCT MAREM DCT MAG DCT AGATI DCT ELSUR DCT CUTEL DCT LAVTI/N0482F380 DCT ADODO/M083F380 DCT 59N020W 58N030W 57N040W 56N050W DCT IRLOK/N0487F380 N730C ANATI/N0489F400 Q850 TOXAL DCT HANAA
Aircraft B772/H-SDE2E3FGHIJ5LORVWXY/LB1D1

Departure

Time N/A
Airport Ben Gurion International Airport (LLBG)

Arrival

Time 2026-04-21 09:47
Airport Newark Liberty International Airport (KEWR)
Time Latitude Longitude Altitude Speed Heading
2026-04-21 08:34 47.33225 -69.94269 40327 ft 462 kts 210°
2026-04-21 08:34 47.27617 -69.98904 40336 ft 462 kts 210°
2026-04-21 08:35 47.22010 -70.03526 40326 ft 462 kts 210°
2026-04-21 08:35 47.16399 -70.08140 40337 ft 462 kts 210°
2026-04-21 08:36 47.10789 -70.12742 40326 ft 462 kts 210°
2026-04-21 08:36 47.05206 -70.17311 40334 ft 463 kts 210°
2026-04-21 08:37 46.99578 -70.21906 40333 ft 463 kts 210°
2026-04-21 08:37 46.94894 -70.25721 40324 ft 463 kts 210°
2026-04-21 08:38 46.89226 -70.30327 40335 ft 463 kts 210°
2026-04-21 08:38 46.83629 -70.34865 40342 ft 463 kts 210°
2026-04-21 08:39 46.78000 -70.39418 40325 ft 462 kts 210°
2026-04-21 08:39 46.72370 -70.43960 40333 ft 462 kts 210°
2026-04-21 08:40 46.66743 -70.48490 40329 ft 462 kts 210°
2026-04-21 08:40 46.61123 -70.53003 40334 ft 462 kts 210°
2026-04-21 08:41 46.55499 -70.57508 40335 ft 461 kts 210°
2026-04-21 08:41 46.49880 -70.61998 40324 ft 461 kts 210°
2026-04-21 08:42 46.44258 -70.66481 40343 ft 460 kts 210°
2026-04-21 08:42 46.38647 -70.70944 40338 ft 460 kts 210°
2026-04-21 08:43 46.33029 -70.75403 40339 ft 460 kts 210°
2026-04-21 08:43 46.27444 -70.79825 40342 ft 461 kts 210°
2026-04-21 08:44 46.21821 -70.84268 40342 ft 461 kts 210°
2026-04-21 08:44 46.16185 -70.88710 40342 ft 462 kts 210°
2026-04-21 08:45 46.10433 -70.92877 40336 ft 463 kts 207°
2026-04-21 08:45 46.04553 -70.96857 40339 ft 464 kts 206°
2026-04-21 08:46 45.98753 -71.00811 40337 ft 465 kts 207°
2026-04-21 08:46 45.92927 -71.04824 40336 ft 465 kts 207°
2026-04-21 08:47 45.87094 -71.08849 40335 ft 465 kts 207°
2026-04-21 08:47 45.81265 -71.12862 40323 ft 465 kts 207°
2026-04-21 08:48 45.75435 -71.16864 40314 ft 465 kts 207°
2026-04-21 08:48 45.69596 -71.20861 40321 ft 465 kts 207°
2026-04-21 08:49 45.63750 -71.24855 40319 ft 465 kts 207°
2026-04-21 08:49 45.57909 -71.28837 40322 ft 465 kts 207°
2026-04-21 08:50 45.52066 -71.32810 40326 ft 465 kts 207°
2026-04-21 08:50 45.46219 -71.36768 40342 ft 465 kts 207°
2026-04-21 08:51 45.40359 -71.40719 40324 ft 466 kts 207°
2026-04-21 08:51 45.34506 -71.44659 40327 ft 466 kts 207°
2026-04-21 08:52 45.28645 -71.48597 40331 ft 466 kts 207°
2026-04-21 08:52 45.22816 -71.52506 40329 ft 466 kts 207°
2026-04-21 08:53 45.16959 -71.56433 40325 ft 465 kts 208°
2026-04-21 08:53 45.11439 -71.61176 40328 ft 463 kts 218°
2026-04-21 08:54 45.06343 -71.66752 40336 ft 463 kts 219°
2026-04-21 08:54 45.01248 -71.72339 40346 ft 463 kts 219°
2026-04-21 08:55 44.96142 -71.77890 40338 ft 463 kts 219°
2026-04-21 08:55 44.91061 -71.83379 40328 ft 463 kts 219°
2026-04-21 08:56 44.85947 -71.88885 40343 ft 463 kts 218°
2026-04-21 08:56 44.80825 -71.94387 40349 ft 463 kts 218°
2026-04-21 08:57 44.75701 -71.99879 40349 ft 463 kts 218°
2026-04-21 08:57 44.70570 -72.05368 40341 ft 463 kts 219°
2026-04-21 08:58 44.65433 -72.10851 40355 ft 464 kts 219°
2026-04-21 08:58 44.60283 -72.16335 40352 ft 465 kts 219°
2026-04-21 08:59 44.55128 -72.21812 40350 ft 465 kts 219°
2026-04-21 08:59 44.49988 -72.27260 40351 ft 466 kts 219°
2026-04-21 09:00 44.44805 -72.32740 40350 ft 466 kts 218°
2026-04-21 09:00 44.39624 -72.38207 40356 ft 466 kts 218°
2026-04-21 09:01 44.34448 -72.43656 40363 ft 466 kts 218°
2026-04-21 09:01 44.29273 -72.49091 40363 ft 466 kts 218°
2026-04-21 09:02 44.24092 -72.54521 40372 ft 465 kts 218°
2026-04-21 09:02 44.18863 -72.59847 40381 ft 466 kts 214°
2026-04-21 09:03 44.10189 -72.66057 40377 ft 469 kts 208°
2026-04-21 09:03 44.04314 -72.70013 40374 ft 469 kts 208°
2026-04-21 09:04 43.98438 -72.74002 40373 ft 470 kts 208°
2026-04-21 09:04 43.92570 -72.78000 40366 ft 470 kts 208°
2026-04-21 09:05 43.86703 -72.81995 40364 ft 470 kts 208°
2026-04-21 09:05 43.80873 -72.85956 40375 ft 470 kts 208°
2026-04-21 09:06 43.74991 -72.89941 40366 ft 470 kts 208°
2026-04-21 09:06 43.69113 -72.93913 40370 ft 471 kts 208°
2026-04-21 09:07 43.63221 -72.97887 40367 ft 471 kts 208°
2026-04-21 09:07 43.57333 -73.01849 40368 ft 471 kts 208°
2026-04-21 09:08 43.51440 -73.05806 40369 ft 471 kts 208°
2026-04-21 09:08 43.45543 -73.09757 40371 ft 472 kts 208°
2026-04-21 09:09 43.39627 -73.13712 40362 ft 472 kts 208°
2026-04-21 09:09 43.33711 -73.17658 40378 ft 472 kts 208°
2026-04-21 09:10 43.27800 -73.21592 40381 ft 473 kts 208°
2026-04-21 09:10 43.21878 -73.25527 40378 ft 473 kts 208°
2026-04-21 09:11 43.15952 -73.29454 40389 ft 473 kts 209°
2026-04-21 09:11 43.10019 -73.33377 40379 ft 473 kts 209°
2026-04-21 09:12 43.04089 -73.37290 40378 ft 473 kts 209°
2026-04-21 09:12 42.98194 -73.41173 40374 ft 473 kts 208°
2026-04-21 09:13 42.92257 -73.45073 40376 ft 473 kts 209°
2026-04-21 09:13 42.86320 -73.48966 40377 ft 473 kts 209°
2026-04-21 09:14 42.80380 -73.52852 40379 ft 473 kts 209°
2026-04-21 09:14 42.77383 -73.54812 39696 ft 484 kts 208°
2026-04-21 09:14 42.74376 -73.56774 39260 ft 475 kts 209°
2026-04-21 09:15 42.71416 -73.58699 38773 ft 468 kts 209°
2026-04-21 09:15 42.68499 -73.60595 38300 ft 461 kts 209°
2026-04-21 09:15 42.65622 -73.62464 37844 ft 455 kts 209°
2026-04-21 09:15 42.62780 -73.64309 37403 ft 449 kts 209°
2026-04-21 09:16 42.59978 -73.66124 36971 ft 444 kts 209°
2026-04-21 09:16 42.57208 -73.67922 36546 ft 438 kts 210°
2026-04-21 09:16 42.54470 -73.69697 36140 ft 433 kts 210°
2026-04-21 09:16 42.51773 -73.71443 35719 ft 428 kts 210°
2026-04-21 09:17 42.49095 -73.73175 35305 ft 424 kts 210°
2026-04-21 09:17 42.46468 -73.74874 34905 ft 425 kts 210°
2026-04-21 09:17 42.43769 -73.76622 34506 ft 437 kts 210°
2026-04-21 09:17 42.40960 -73.78441 34060 ft 442 kts 210°
2026-04-21 09:18 42.38237 -73.80195 33629 ft 437 kts 210°
2026-04-21 09:18 42.35507 -73.81947 33201 ft 431 kts 210°
2026-04-21 09:18 42.32824 -73.83666 32793 ft 425 kts 210°
2026-04-21 09:18 42.30171 -73.85366 32395 ft 419 kts 210°
2026-04-21 09:19 42.27547 -73.87048 32003 ft 413 kts 210°
2026-04-21 09:19 42.24970 -73.88698 31613 ft 408 kts 210°
2026-04-21 09:19 42.22422 -73.90330 31231 ft 402 kts 210°
2026-04-21 09:19 42.19912 -73.91937 30854 ft 397 kts 210°
2026-04-21 09:20 42.17432 -73.93524 30482 ft 392 kts 210°
2026-04-21 09:20 42.14976 -73.95093 30071 ft 390 kts 210°
2026-04-21 09:20 42.12482 -73.96692 29591 ft 407 kts 210°
2026-04-21 09:20 42.09883 -73.98360 29257 ft 415 kts 210°
2026-04-21 09:21 42.07311 -73.99996 28835 ft 406 kts 210°
2026-04-21 09:21 42.04763 -74.01613 28413 ft 401 kts 209°
2026-04-21 09:21 42.02258 -74.03200 28015 ft 396 kts 209°
2026-04-21 09:21 42.00614 -74.04243 27746 ft 393 kts 209°
2026-04-21 09:22 41.98159 -74.05800 27348 ft 388 kts 210°
2026-04-21 09:22 41.95734 -74.07337 26966 ft 383 kts 209°
2026-04-21 09:22 41.93334 -74.08861 26580 ft 379 kts 209°
2026-04-21 09:22 41.90962 -74.10364 26207 ft 375 kts 209°
2026-04-21 09:23 41.88615 -74.11850 25852 ft 371 kts 209°
2026-04-21 09:23 41.86292 -74.13319 25482 ft 367 kts 209°
2026-04-21 09:23 41.83996 -74.14770 25129 ft 363 kts 209°
2026-04-21 09:23 41.81723 -74.16206 24766 ft 359 kts 209°
2026-04-21 09:24 41.79475 -74.17624 24414 ft 356 kts 209°
2026-04-21 09:24 41.77245 -74.19031 24066 ft 352 kts 209°
2026-04-21 09:24 41.75039 -74.20422 23731 ft 349 kts 209°
2026-04-21 09:24 41.72853 -74.21799 23379 ft 347 kts 209°
2026-04-21 09:25 41.70669 -74.23173 23054 ft 346 kts 209°
2026-04-21 09:25 41.68476 -74.24554 22719 ft 353 kts 209°
2026-04-21 09:25 41.66220 -74.25975 22380 ft 362 kts 209°
2026-04-21 09:25 41.63948 -74.27401 22020 ft 361 kts 209°
2026-04-21 09:26 41.61680 -74.28820 21665 ft 357 kts 209°
2026-04-21 09:26 41.59431 -74.30229 21092 ft 359 kts 209°
2026-04-21 09:26 41.57168 -74.31646 20613 ft 359 kts 209°
2026-04-21 09:26 41.54909 -74.33052 20227 ft 356 kts 208°
2026-04-21 09:27 41.52602 -74.34232 19874 ft 354 kts 202°
2026-04-21 09:27 41.50270 -74.35220 19532 ft 350 kts 201°
2026-04-21 09:27 41.47958 -74.36186 19186 ft 346 kts 202°
2026-04-21 09:27 41.45681 -74.37154 18845 ft 342 kts 202°
2026-04-21 09:28 41.43426 -74.38123 18508 ft 339 kts 202°
2026-04-21 09:28 41.41193 -74.39084 18167 ft 335 kts 202°
2026-04-21 09:28 41.38985 -74.40034 17830 ft 331 kts 202°
2026-04-21 09:28 41.36802 -74.40974 17490 ft 328 kts 202°
2026-04-21 09:29 41.34667 -74.41891 17164 ft 325 kts 202°
2026-04-21 09:29 41.32525 -74.42796 16815 ft 323 kts 200°
2026-04-21 09:29 41.30316 -74.43394 16426 ft 324 kts 193°
2026-04-21 09:29 41.28090 -74.43797 16080 ft 322 kts 191°
2026-04-21 09:30 41.25875 -74.44167 15746 ft 319 kts 191°
2026-04-21 09:30 41.23687 -74.44534 15419 ft 316 kts 192°
2026-04-21 09:30 41.21518 -74.44907 15083 ft 312 kts 192°
2026-04-21 09:30 41.19364 -74.45286 14750 ft 312 kts 192°
2026-04-21 09:31 41.17197 -74.45675 14423 ft 316 kts 192°
2026-04-21 09:31 41.14995 -74.46077 14071 ft 322 kts 192°
2026-04-21 09:31 41.12767 -74.46484 13733 ft 322 kts 192°
2026-04-21 09:31 41.10556 -74.46886 13375 ft 319 kts 192°
2026-04-21 09:32 41.08372 -74.47282 13018 ft 315 kts 192°
2026-04-21 09:32 41.06207 -74.47677 12684 ft 312 kts 192°
2026-04-21 09:32 41.04092 -74.48062 12343 ft 308 kts 192°
2026-04-21 09:32 41.01952 -74.48454 12007 ft 304 kts 192°
2026-04-21 09:33 40.99866 -74.48835 11667 ft 301 kts 192°
2026-04-21 09:33 40.97829 -74.49209 11340 ft 298 kts 191°
2026-04-21 09:33 40.95783 -74.49585 11014 ft 295 kts 191°
2026-04-21 09:33 40.93753 -74.49956 10683 ft 293 kts 191°
2026-04-21 09:34 40.91744 -74.50323 10363 ft 290 kts 191°
2026-04-21 09:34 40.89778 -74.50681 10228 ft 281 kts 191°
2026-04-21 09:34 40.87875 -74.51026 10099 ft 272 kts 191°
2026-04-21 09:34 40.86026 -74.51362 9966 ft 264 kts 191°
2026-04-21 09:35 40.84206 -74.51694 9708 ft 264 kts 191°
2026-04-21 09:35 40.82368 -74.52032 9462 ft 269 kts 191°
2026-04-21 09:35 40.80497 -74.52374 9200 ft 274 kts 190°
2026-04-21 09:35 40.78595 -74.52721 8922 ft 275 kts 190°
2026-04-21 09:36 40.76703 -74.53065 8632 ft 273 kts 191°
2026-04-21 09:36 40.74828 -74.53406 8357 ft 271 kts 190°
2026-04-21 09:36 40.72970 -74.53743 8085 ft 268 kts 190°
2026-04-21 09:36 40.71129 -74.54078 7816 ft 266 kts 190°
2026-04-21 09:37 40.69302 -74.54409 7548 ft 264 kts 190°
2026-04-21 09:37 40.67489 -74.54738 7284 ft 262 kts 190°
2026-04-21 09:37 40.65687 -74.55063 7019 ft 260 kts 189°
2026-04-21 09:37 40.63921 -74.54951 6727 ft 256 kts 160°
2026-04-21 09:38 40.62402 -74.53768 6403 ft 254 kts 143°
2026-04-21 09:38 40.60981 -74.52363 6050 ft 256 kts 143°
2026-04-21 09:38 40.59581 -74.50984 5835 ft 253 kts 143°
2026-04-21 09:38 40.58275 -74.49448 5405 ft 256 kts 134°
2026-04-21 09:39 40.57053 -74.47745 4857 ft 251 kts 132°
2026-04-21 09:39 40.55888 -74.46100 4602 ft 243 kts 131°
2026-04-21 09:39 40.54742 -74.44481 4376 ft 241 kts 131°
2026-04-21 09:39 40.53668 -74.42828 4107 ft 235 kts 121°
2026-04-21 09:40 40.52875 -74.40979 3873 ft 225 kts 115°
2026-04-21 09:40 40.52182 -74.39211 3652 ft 213 kts 115°
2026-04-21 09:40 40.51705 -74.37439 3423 ft 201 kts 88°
2026-04-21 09:40 40.51754 -74.35648 3308 ft 195 kts 86°
2026-04-21 09:41 40.51738 -74.33873 3249 ft 190 kts 89°
2026-04-21 09:41 40.51692 -74.32171 3270 ft 185 kts 89°
2026-04-21 09:41 40.51636 -74.30491 3216 ft 186 kts 89°
2026-04-21 09:41 40.51788 -74.28851 3123 ft 179 kts 64°
2026-04-21 09:42 40.52358 -74.27406 3067 ft 176 kts 59°
2026-04-21 09:42 40.53156 -74.26257 2985 ft 174 kts 24°
2026-04-21 09:42 40.54287 -74.25744 2918 ft 175 kts 18°
2026-04-21 09:42 40.55441 -74.25187 2675 ft 176 kts 23°
2026-04-21 09:43 40.56521 -74.24552 2471 ft 162 kts 24°
2026-04-21 09:43 40.57515 -74.23930 2245 ft 154 kts 24°
2026-04-21 09:43 40.58479 -74.23321 2057 ft 153 kts 24°
2026-04-21 09:43 40.59408 -74.22731 1873 ft 143 kts 24°
2026-04-21 09:44 40.59707 -74.22541 1804 ft 140 kts 24°
2026-04-21 09:44 40.60272 -74.22181 1702 ft 134 kts 24°
2026-04-21 09:44 40.61100 -74.21656 1524 ft 132 kts 24°
2026-04-21 09:44 40.61933 -74.21127 1351 ft 133 kts 25°
2026-04-21 09:45 40.62769 -74.20595 1168 ft 133 kts 24°
2026-04-21 09:45 40.63600 -74.20067 998 ft 133 kts 25°
2026-04-21 09:45 40.64435 -74.19536 819 ft 132 kts 25°
2026-04-21 09:45 40.65257 -74.19014 648 ft 130 kts 23°
2026-04-21 09:46 40.66066 -74.18498 470 ft 128 kts 24°
2026-04-21 09:46 40.66859 -74.17988 308 ft 126 kts 21°
2026-04-21 09:46 40.67655 -74.17489 132 ft 127 kts 21°
2026-04-21 09:46 40.68428 -74.16994 33 ft 119 kts 24°
2026-04-21 09:47 40.69072 -74.16592 27 ft 76 kts 25°
2026-04-21 09:47 40.69384 -74.16449 29 ft 30 kts 359°
2026-04-21 09:47 40.69480 -74.16488 27 ft 10 kts 291°
2026-04-21 09:47 40.69440 -74.16579 27 ft 18 kts 219°
2026-04-21 09:48 40.69428 -74.16689 27 ft 14 kts 289°
2026-04-21 09:48 40.69478 -74.16833 27 ft 24 kts 295°
2026-04-21 09:48 40.69527 -74.17024 26 ft 22 kts 267°
2026-04-21 09:48 40.69519 -74.17167 26 ft 11 kts 282°
2026-04-21 09:49 40.69522 -74.17253 26 ft 5 kts 257°
2026-04-21 09:49 40.69517 -74.17279 26 ft 0 kts 257°